Zurück zum Katalog

STARLINK-3281

AktivKommunikationVLEO
NORAD 50183·PAYLOAD·🇺🇸 United States

Gestartet Dec 18, 2021 von Vandenberg Space Force Base

Loading…

Nächste Überflüge (nächste 24 Stunden)

TLE

AktuellSource: CelesTrak SupGP

Epoche: Sep 14, 2026, 20:32 UTC

1 50183C 21125AD  26257.85604167 -.00017157  00000+0 -10134-2 0  2577
2 50183  53.1587 118.6446 0002889  96.8728 290.4962 15.11016680    17

Verfolge STARLINK-3281 in Echtzeit mit AllMySat

Download on the App Store